This demonstration page uses our WeatherBlox Daily Observations layout. Learn more.

Left ArrowRight Arrow

Hourly Observations for June 16, 2021

Temp ( °F °C ) Dew Point ( °F °C ) Humidity (%) Winds ( mph kmh ) Pressure ( in mb ) Visibility ( mi km ) Precip ( " mm )
12:53 am 00:53 Clear 65 18.3 55 12.8 70 70 NNE 6 9 30.01 1016 10 16 N/A
1:53 am 01:53 Clear 65 18.3 53 11.7 66 66 E 5 7 30.02 1017 10 16 N/A
2:53 am 02:53 Clear 59 15 55 12.8 87 87 N N/A 30.03 1017 10 16 N/A
3:53 am 03:53 Clear 58 14.4 55 12.8 90 90 N N/A 30.05 1018 10 16 N/A
4:53 am 04:53 Mostly Cloudy 58 14.4 56 13.3 93 93 N N/A 30.05 1018 10 16 N/A
5:53 am 05:53 Cloudy 58 14.4 56 13.3 93 93 N N/A 30.05 1018 10 16 N/A
6:53 am 06:53 Mostly Cloudy 62 16.7 54 12.2 75 75 NE 5 7 30.09 1019 10 16 N/A
7:53 am 07:53 Sunny 64 17.8 52 11.1 65 65 E 7 11 30.09 1019 10 16 N/A
8:53 am 08:53 Sunny 68 20 48 8.9 49 49 VRB 6 9 30.11 1020 10 16 N/A
9:53 am 09:53 Sunny 70 21.1 47 8.3 44 44 E 9 15 30.12 1020 10 16 N/A
10:53 am 10:53 Sunny 72 22.2 43 6.1 35 35 ENE 5 7 30.11 1020 10 16 N/A
11:53 am 11:53 Sunny 74 23.3 42 5.6 32 32 E 3 6 30.11 1020 10 16 N/A
12:53 pm 12:53 Sunny 75 23.9 46 7.8 36 36 VRB 5 7 30.09 1019 10 16 N/A
1:53 pm 13:53 Sunny 77 25 45 7.2 32 32 N N/A 30.09 1019 10 16 N/A
2:53 pm 14:53 Sunny 78 25.6 47 8.3 33 33 N N/A 30.07 1018 10 16 N/A
3:53 pm 15:53 Sunny 78 25.6 46 7.8 32 32 N N/A 30.05 1018 10 16 N/A
4:53 pm 16:53 Mostly Sunny 80 26.7 48 8.9 33 33 undefined N/A 30.05 1018 10 16 N/A
5:53 pm 17:53 Sunny 80 26.7 47 8.3 31 31 NNW 3 6 30.04 1017 10 16 N/A
6:53 pm 18:53 Sunny 79 26.1 47 8.3 32 32 N 6 9 30.03 1017 10 16 N/A
7:53 pm 19:53 Sunny 74 23.3 57 13.9 56 56 N 3 6 30.02 1017 10 16 N/A
8:53 pm 20:53 Sunny 66 18.9 55 12.8 68 68 N N/A 30.03 1017 10 16 N/A
9:53 pm 21:53 Clear 62 16.7 55 12.8 78 78 N N/A 30.03 1017 10 16 N/A
10:53 pm 22:53 Clear 60 15.6 54 12.2 80 80 N N/A 30.04 1017 10 16 N/A
11:53 pm 23:53 Clear 58 14.4 54 12.2 87 87 N N/A 30.04 1017 10 16 N/A

Powered by AerisWeather